Location: Iesi
(43.5167°N, 13.2333°E)
Time: 15:09:10
(UTC+00:00)

Cosmos 968 Rocket - Pass Details

Date: 08 August 2020
Orbit: 740 x 772 km, 74.0° (Epoch: 23 September)

Event Time Altitude Azimuth Distance (km) Brightness Sun altitude
Exits shadow 22:58:58 49° 26° (NNE) 961 4.2 -30.6°
Drops below altitude 10° 23:02:40 10° 22° (NNE) 2,263 6.7 -30.7°
Sets 23:05:02 0° 22° (NNE) 3,194 7.7 -30.7°
